sat.trackr.live / text

‹ back to catalog

STARLINK-37069

NORAD 68158 · 2026-049S

PAYLOAD ACTIVE UNKNOWN

§ Identity

Operator
Country
US
Launch date
2026-03-13
Launch site
AFWTR
Launch vehicle
Mass (kg)
RCS (m²)

Purposes: comms

External: N2YO · Heavens-Above · Gunter

§ Orbital elements

Epoch: 2026-09-19T19:42:21.904704Z

Period
93.91 min
Inclination
97.2855°
Eccentricity
0.0001282
Mean motion
15.33449232 rev/d
Perigee alt
464.7 km
Apogee alt
466.4 km
Semi-major
6,843.7 km
B*
2.9871e-4
RAAN
282.7356°
Arg perigee
94.9624°
Mean anomaly
265.1765°
Rev number
2,939

§ Raw data

STARLINK-370691 68158U 26049S   26262.82108686  .00009582  00000+0  29871-3 0  99992 68158  97.2855 282.7356 0001282  94.9624 265.1765 15.33449232 29397

JSON: /api/v1/satellites/68158 · /tle

For live sub-satellite position, see the globe view (requires WebGL).

§ Visibility from observer

Set your observer location to see the next 7 days of passes ≥ 10°. The values pass through the URL so the page stays shareable.

No JS? Fill the form by hand. The geolocation button needs JavaScript.